Location: Treviso
(45.6669°N, 12.2430°E)
Time: 10:02:48
(UTC+02:00)

ISS - Pass Details

Date: 02 July 2022
Orbit: 414 x 420 km, 51.6° (Epoch: 02 July)

Event Time Altitude Azimuth Distance (km) Brightness Sun altitude
Exits shadow 02:35:35 27° 120° (ESE) 848 -2.3 -18.9°
Drops below altitude 10° 02:37:57 10° 79° (ENE) 1,498 -0.6 -18.7°
Sets 02:40:13 0° 67° (ENE) 2,366 0.7 -18.6°
